Change the Weather History Date:

Monday, February 18, 2013

  Actual Average Record
Temperature  
Mean Temperature 78 °F -  
Max Temperature 91 °F 84 °F 96 °F (2012)
Min Temperature 66 °F 63 °F 32 °F (2004)
Cooling Degree Days 14    
Growing Degree Days 28 (Base 50)    
Moisture  
Dew Point 56 °F    
Average Humidity 48    
Maximum Humidity 78    
Minimum Humidity 26    
Precipitation  
Precipitation 0.00 in - - ()
Sea Level Pressure  
Sea Level Pressure 29.95 in    
Wind  
Wind Speed 5 mph ()    
Max Wind Speed 10 mph    
Max Gust Speed -    
Visibility 6.2 miles    
Events      
Averages and records for this station are not official NWS values.
T = Trace of Precipitation, MM = Missing Value Source: Averaged Metar Reports

Daily Weather History Graph

Daily Weather History Graph

Search for Another Location

Airport or City:

Trip Planner

Search our weather history database for the weather conditions in past years. The results will help you decide how hot, cold, wet, or windy it might be!

Date:

Astronomy

Feb. 18, 2013 Rise Set
Actual Time 6:05 AM CAT 6:55 PM CAT
Civil Twilight 5:41 AM CAT 7:18 PM CAT
Nautical Twilight 5:13 AM CAT 7:46 PM CAT
Astronomical Twilight 4:45 AM CAT 8:14 PM CAT
Moon 1:20 PM CAT (2/18) No Moon Set
Length of Visible Light 13h 37m
Length of Day
12h 50m
First Quarter, 55% of the Moon is Illuminated
Feb 18
First Quarter
Feb 25
Full
Mar 4
Last Quarter
Mar 11
New
Mar 19
First Quarter

Hourly Weather History & Observations

Time (CAT) Temp. Heat Index Dew Point Humidity Pressure Visibility Wind Dir Wind Speed Gust Speed Precip Events Conditions
12:00 AM 75.2 °F - 55.4 °F 50% 29.98 in - NNE 6.9 mph - N/A   Clear
1:00 AM 73.4 °F - 55.4 °F 53% 29.98 in - NE 10.4 mph - N/A   Clear
2:00 AM 69.8 °F - 57.2 °F 64% 29.98 in - ENE 6.9 mph - N/A   Clear
3:00 AM 69.8 °F - 57.2 °F 64% 30.01 in - East 4.6 mph - N/A   Clear
4:00 AM 68.0 °F - 59.0 °F 73% 30.01 in - ESE 4.6 mph - N/A   Clear
5:00 AM 66.2 °F - 59.0 °F 78% 30.01 in - SE 5.8 mph - N/A   Clear
6:00 AM 66.2 °F - 59.0 °F 78% 30.01 in - ESE 3.5 mph - N/A   Clear
7:00 AM 66.2 °F - 59.0 °F 78% 30.04 in - SE 5.8 mph - N/A   Clear
8:00 AM 71.6 °F - 57.2 °F 60% 30.04 in - ENE 6.9 mph - N/A   Clear
10:00 AM 78.8 °F - 57.2 °F 47% 30.04 in - NNE 6.9 mph - N/A   Clear
11:00 AM 82.4 °F 82.0 °F 57.2 °F 42% 30.04 in - Variable 4.6 mph - N/A   Clear
12:00 PM 86.0 °F 84.2 °F 53.6 °F 33% 29.98 in 6.2 mi Variable 3.5 mph - N/A   Partly Cloudy
1:00 PM 86.0 °F 84.2 °F 53.6 °F 33% 29.98 in 6.2 mi Variable 3.5 mph - N/A   Partly Cloudy
2:00 PM 89.6 °F 87.3 °F 53.6 °F 29% 29.92 in 6.2 mi Variable 5.8 mph - N/A   Partly Cloudy
3:00 PM 91.4 °F 89.1 °F 53.6 °F 28% 29.89 in 6.2 mi Variable 3.5 mph - N/A   Partly Cloudy
4:00 PM 89.6 °F - 51.8 °F 27% 29.89 in 6.2 mi Variable 3.5 mph - N/A   Partly Cloudy
5:00 PM 91.4 °F - 51.8 °F 26% 29.86 in 6.2 mi Variable 2.3 mph - N/A   Partly Cloudy
6:00 PM 89.6 °F - 51.8 °F 27% 29.86 in 6.2 mi SE 3.5 mph - N/A   Partly Cloudy
7:00 PM 86.0 °F - 51.8 °F 31% 29.86 in 6.2 mi Variable 2.3 mph - N/A   Partly Cloudy
8:00 PM 82.4 °F 81.7 °F 55.4 °F 39% 29.86 in - Variable 1.2 mph - N/A   Clear
9:00 PM 82.4 °F 82.0 °F 57.2 °F 42% 29.89 in - East 2.3 mph - N/A   Clear
10:00 PM 78.8 °F - 60.8 °F 54% 29.89 in - SE 3.5 mph - N/A   Clear
11:00 PM 75.2 °F - 59.0 °F 57% 29.89 in - SE 6.9 mph - N/A   Clear